Weather in Razdol'noe

Russia / Novosibirsk Oblast     55°03′27″N   83°07′44″E
temp.,
°C
wind,
m/s
gust,
m/s
humid.,
%
clouds,
%
prec.,
mm/h
press.,
hPa
HPBL,
m
26 january, tue
tue2601:00−33ese229890 0.0 104219
04:00−33ese129892 0.0 104119
07:00−33e129886 0.1 104119
10:00−35ene229730 0.0 104119
13:00−28ese129215 0.0 1041157
16:00−26e229276 0.0 1039198
19:00−28se339485 0.0 103933
22:00−27sse369696 0.0 1038104
27 january, wed
wed2701:00−21s5119797 0.1 1035268
04:00−17s61295100 0.4 1031473
07:00−12ssw71494100 1.3 1028565
10:00−10ssw81494100 1.6 1025507
13:00−5sw81495100 3.8 1023765
16:00−3wsw81496100 2.8 1022852
19:00−3wsw71496100 4.9 1023750
22:00−5wsw71395100 1.4 1024654
28 january, thu
thu2801:00−7wsw61195100 2.6 1026503
04:00−8wsw51095100 0.7 1028372
07:00−8sw4896100 1.3 1029279
10:00−8sw4996100 0.3 1030301
13:00−6sw61095100 1.0 1029470
16:00−6sw71293100 0.4 1027729
19:00−7sw71492100 0.6 1026701
22:00−6sw81593100 0.2 1025692
29 january, fri
fri2901:00−6sw91593100 0.5 1022761
04:00−5sw91693100 0.2 1020702
07:00−5sw91691100 0.3 1018752
10:00−6wsw91593100 0.3 1018889
13:00−4wsw81294100 1.1 1019893
16:00−4wsw71194100 0.6 1020756
19:00−6wsw61295100 0.9 1022544
22:00−6wsw61195100 0.4 1022661
30 january, sat
sat3001:00−6wsw61194100 0.8 1023536
04:00−8wsw51195100 0.3 1024428
07:00−8w51095100 0.8 1026421
10:00−17n3796100 0.3 1031284
13:00−22ne349697 0.3 1033249
16:00−24ne349275 0.0 1035202
19:00−28ne359388 0.0 103786
22:00−30ne369095 0.0 1038100